Location: Saluda
(35.2377°N, 82.3468°W)
Time: 16:42:33
(UTC+00:00)

Explorer 11/Cluster Stage 4 - Pass Details

Date: 08 October 2022
Orbit: 466 x 1247 km, 28.8° (Epoch: 08 December)

Event Time Altitude Azimuth Distance (km) Brightness Sun altitude
Rises 14:20:04 0° 235° (SW) 3,929 10.0 31.4°
Reaches altitude 10° 14:22:56 10° 228° (SW) 3,056 9.6 31.9°
Maximum altitude 14:30:05 40° 162° (SSE) 1,742 9.7 33.1°
Drops below altitude 10° 14:37:33 10° 97° (E) 3,205 10.7 34.3°
Sets 14:40:38 0° 90° (E) 4,139 10.9 34.8°
